ITY736 LIPQ-LMML

Flight info

Callsign ITY736
Flight time 1h 39m
Altitude 37000
Route CHI1U CHI DCT ARDAM DCT BELOV/N0441F390 DCT GOTMO DCT ROSAS DCT MARON/N0347F190 L12 GZO DCT
Aircraft A20N/M-SDE2E3FGHIRWXY/LB1

Departure

Time 2026-05-08 20:22
Airport Trieste Airport (LIPQ)

Arrival

Time 2026-05-08 22:01
Airport Malta International Airport (LMML)
Time Latitude Longitude Altitude Speed Heading
2026-05-08 19:58 45.82316 13.48353 50 ft 0 kts 350°
2026-05-08 20:10 45.82309 13.48355 50 ft 4 kts 351°
2026-05-08 20:10 45.82282 13.48357 50 ft 4 kts 12°
2026-05-08 20:11 45.82263 13.48342 50 ft 4 kts 75°
2026-05-08 20:11 45.82262 13.48336 50 ft 1 kts 82°
2026-05-08 20:14 45.82265 13.48366 46 ft 10 kts 81°
2026-05-08 20:14 45.82281 13.48510 47 ft 16 kts 78°
2026-05-08 20:14 45.82356 13.48572 50 ft 14 kts 359°
2026-05-08 20:14 45.82455 13.48574 50 ft 15 kts
2026-05-08 20:15 45.82561 13.48574 50 ft 15 kts
2026-05-08 20:15 45.82667 13.48576 50 ft 16 kts
2026-05-08 20:15 45.82742 13.48578 50 ft 16 kts
2026-05-08 20:15 45.82777 13.48527 49 ft 6 kts 273°
2026-05-08 20:16 45.82777 13.48518 49 ft 1 kts 270°
2026-05-08 20:16 45.82777 13.48497 49 ft 8 kts 271°
2026-05-08 20:16 45.82777 13.48494 49 ft 0 kts 271°
2026-05-08 20:20 45.82778 13.48483 49 ft 10 kts 273°
2026-05-08 20:20 45.82781 13.48436 48 ft 0 kts 272°
2026-05-08 20:22 45.82782 13.47969 48 ft 93 kts 269°
2026-05-08 20:22 45.82786 13.46649 99 ft 162 kts 269°
2026-05-08 20:22 45.82785 13.44961 745 ft 175 kts 269°
2026-05-08 20:23 45.82791 13.43149 1492 ft 190 kts 269°
2026-05-08 20:23 45.82760 13.41140 2273 ft 214 kts 269°
2026-05-08 20:23 45.82746 13.38933 3298 ft 228 kts 269°
2026-05-08 20:23 45.82577 13.36682 4730 ft 226 kts 255°
2026-05-08 20:24 45.81930 13.34663 6206 ft 221 kts 229°
2026-05-08 20:24 45.80678 13.33519 7589 ft 214 kts 198°
2026-05-08 20:24 45.79237 13.32948 8836 ft 216 kts 194°
2026-05-08 20:24 45.77785 13.32363 9980 ft 210 kts 197°
2026-05-08 20:25 45.76427 13.31719 10508 ft 194 kts 199°
2026-05-08 20:25 45.75074 13.30995 10928 ft 222 kts 201°
2026-05-08 20:25 45.73618 13.30152 11858 ft 229 kts 202°
2026-05-08 20:25 45.72130 13.29257 12919 ft 235 kts 203°
2026-05-08 20:26 45.70704 13.28144 13986 ft 239 kts 218°
2026-05-08 20:26 45.69479 13.26494 14950 ft 243 kts 227°
2026-05-08 20:26 45.68339 13.24686 15912 ft 247 kts 229°
2026-05-08 20:26 45.67199 13.22832 16888 ft 250 kts 229°
2026-05-08 20:27 45.66041 13.20953 17886 ft 254 kts 229°
2026-05-08 20:27 45.64859 13.19046 18789 ft 258 kts 228°
2026-05-08 20:27 45.63549 13.17283 19702 ft 260 kts 219°
2026-05-08 20:27 45.62077 13.15759 20639 ft 262 kts 216°
2026-05-08 20:28 45.60563 13.14287 21560 ft 264 kts 216°
2026-05-08 20:28 45.59033 13.12814 22455 ft 266 kts 216°
2026-05-08 20:28 45.57513 13.11348 23311 ft 270 kts 216°
2026-05-08 20:28 45.55911 13.09797 23768 ft 288 kts 216°
2026-05-08 20:29 45.54199 13.08136 24097 ft 307 kts 216°
2026-05-08 20:29 45.52380 13.06373 24424 ft 325 kts 216°
2026-05-08 20:29 45.50417 13.04599 24736 ft 343 kts 212°
2026-05-08 20:29 45.48295 13.02848 25041 ft 360 kts 211°
2026-05-08 20:30 45.46060 13.01068 25381 ft 375 kts 211°
2026-05-08 20:30 45.43743 12.99268 25904 ft 382 kts 210°
2026-05-08 20:30 45.41385 12.97457 26523 ft 387 kts 210°
2026-05-08 20:30 45.38998 12.95633 27151 ft 391 kts 210°
2026-05-08 20:31 45.36594 12.93796 27786 ft 394 kts 210°
2026-05-08 20:31 45.34167 12.91939 28408 ft 397 kts 211°
2026-05-08 20:31 45.31724 12.90067 29009 ft 400 kts 211°
2026-05-08 20:31 45.29293 12.88203 29598 ft 403 kts 211°
2026-05-08 20:32 45.26810 12.86299 30168 ft 406 kts 211°
2026-05-08 20:32 45.24317 12.84390 30732 ft 406 kts 212°
2026-05-08 20:32 45.21821 12.82479 31214 ft 409 kts 212°
2026-05-08 20:32 45.19309 12.80558 31757 ft 410 kts 213°
2026-05-08 20:33 45.16803 12.78644 32355 ft 408 kts 213°
2026-05-08 20:33 45.14295 12.76730 32919 ft 408 kts 214°
2026-05-08 20:33 45.11821 12.74843 33463 ft 408 kts 215°
2026-05-08 20:33 45.09328 12.72946 34047 ft 407 kts 215°
2026-05-08 20:34 45.06838 12.71053 34545 ft 405 kts 215°
2026-05-08 20:34 45.04361 12.69174 35028 ft 403 kts 215°
2026-05-08 20:34 44.99430 12.65433 35960 ft 401 kts 214°
2026-05-08 20:35 44.96968 12.63567 36390 ft 401 kts 214°
2026-05-08 20:35 44.94505 12.61701 36809 ft 400 kts 214°
2026-05-08 20:35 44.92044 12.59837 37040 ft 403 kts 213°
2026-05-08 20:36 44.87102 12.56144 37049 ft 403 kts 211°
2026-05-08 20:36 44.81715 12.53863 37057 ft 414 kts 192°
2026-05-08 20:36 44.78808 12.53749 37065 ft 422 kts 181°
2026-05-08 20:37 44.75887 12.54455 37065 ft 431 kts 169°
2026-05-08 20:37 44.70381 12.57984 37057 ft 441 kts 156°
2026-05-08 20:38 44.65063 12.62350 37064 ft 443 kts 154°
2026-05-08 20:38 44.59779 12.66784 37069 ft 442 kts 154°
2026-05-08 20:39 44.54334 12.70632 37068 ft 433 kts 167°
2026-05-08 20:39 44.48517 12.72251 37070 ft 424 kts 178°
2026-05-08 20:40 44.42691 12.73161 37069 ft 422 kts 180°
2026-05-08 20:40 44.36839 12.73950 37069 ft 422 kts 180°
2026-05-08 20:41 44.30991 12.74763 37067 ft 422 kts 180°
2026-05-08 20:41 44.25171 12.75605 37067 ft 421 kts 180°
2026-05-08 20:42 44.19344 12.76459 37071 ft 421 kts 180°
2026-05-08 20:42 44.13513 12.77313 37073 ft 421 kts 180°
2026-05-08 20:43 44.07682 12.78164 37074 ft 420 kts 180°
2026-05-08 20:43 44.01880 12.79008 37074 ft 420 kts 180°
2026-05-08 20:44 43.96091 12.79847 37073 ft 420 kts 180°
2026-05-08 20:44 43.90266 12.80691 37073 ft 420 kts 180°
2026-05-08 20:45 43.84456 12.81530 37075 ft 419 kts 180°
2026-05-08 20:45 43.78659 12.82368 37075 ft 419 kts 180°
2026-05-08 20:46 43.72859 12.83203 37074 ft 418 kts 180°
2026-05-08 20:46 43.67102 12.84029 37071 ft 418 kts 180°
2026-05-08 20:47 43.61312 12.84860 37075 ft 418 kts 180°
2026-05-08 20:47 43.55523 12.85688 37077 ft 418 kts 180°
2026-05-08 20:48 43.49733 12.86515 37056 ft 418 kts 180°
2026-05-08 20:48 43.43981 12.87336 37068 ft 417 kts 180°
2026-05-08 20:49 43.38201 12.88159 37075 ft 417 kts 180°
2026-05-08 20:49 43.32423 12.88979 37067 ft 417 kts 180°
2026-05-08 20:50 43.26647 12.89798 37073 ft 417 kts 180°
2026-05-08 20:50 43.20857 12.90619 37077 ft 418 kts 179°
2026-05-08 20:51 43.15076 12.91493 37072 ft 418 kts 179°
2026-05-08 20:51 43.09317 12.92395 37061 ft 418 kts 179°
2026-05-08 20:52 43.03518 12.93301 37078 ft 419 kts 179°
2026-05-08 20:52 42.97722 12.94198 37077 ft 419 kts 179°
2026-05-08 20:53 42.91954 12.95088 37073 ft 419 kts 179°
2026-05-08 20:53 42.86151 12.95981 37071 ft 419 kts 179°
2026-05-08 20:54 42.80353 12.96871 37076 ft 419 kts 179°
2026-05-08 20:54 42.74549 12.97760 37072 ft 419 kts 179°
2026-05-08 20:55 42.68750 12.98647 37057 ft 419 kts 180°
2026-05-08 20:55 42.62952 12.99532 37071 ft 418 kts 179°
2026-05-08 20:56 42.57206 13.00409 37074 ft 418 kts 179°
2026-05-08 20:56 42.51418 13.01289 37067 ft 418 kts 179°
2026-05-08 20:57 42.45639 13.02167 37077 ft 417 kts 180°
2026-05-08 20:57 42.39877 13.03039 37066 ft 416 kts 180°
2026-05-08 20:58 42.34130 13.03909 37060 ft 416 kts 180°
2026-05-08 20:58 42.28379 13.04778 37064 ft 416 kts 180°
2026-05-08 20:59 42.22666 13.05639 37071 ft 415 kts 179°
2026-05-08 20:59 42.16922 13.06504 37078 ft 415 kts 179°
2026-05-08 21:00 42.11184 13.07366 37078 ft 415 kts 179°
2026-05-08 21:00 42.05445 13.08230 37067 ft 414 kts 179°
2026-05-08 21:01 41.99711 13.09085 37077 ft 414 kts 179°
2026-05-08 21:01 41.94011 13.09935 37070 ft 414 kts 179°
2026-05-08 21:02 41.88273 13.10790 37071 ft 415 kts 179°
2026-05-08 21:02 41.82536 13.11644 37064 ft 414 kts 179°
2026-05-08 21:03 41.76799 13.12496 37065 ft 414 kts 179°
2026-05-08 21:03 41.72033 13.13203 37063 ft 414 kts 179°
2026-05-08 21:04 41.66299 13.14054 37057 ft 414 kts 180°
2026-05-08 21:04 41.60571 13.14901 37056 ft 414 kts 180°
2026-05-08 21:05 41.54874 13.15742 37045 ft 413 kts 180°
2026-05-08 21:05 41.49149 13.16586 37053 ft 413 kts 180°
2026-05-08 21:06 41.43419 13.17427 37023 ft 414 kts 180°
2026-05-08 21:06 41.37699 13.18266 37048 ft 414 kts 180°
2026-05-08 21:07 41.31974 13.19103 37049 ft 414 kts 180°
2026-05-08 21:07 41.26239 13.19941 37045 ft 414 kts 180°
2026-05-08 21:08 41.20539 13.20774 37037 ft 414 kts 181°
2026-05-08 21:08 41.14805 13.21610 37045 ft 414 kts 181°
2026-05-08 21:09 41.09075 13.22444 37045 ft 414 kts 181°
2026-05-08 21:09 41.03345 13.23276 37045 ft 414 kts 181°
2026-05-08 21:10 40.97618 13.24106 37048 ft 414 kts 181°
2026-05-08 21:10 40.91922 13.24931 37053 ft 414 kts 181°
2026-05-08 21:11 40.86200 13.25757 37047 ft 414 kts 181°
2026-05-08 21:11 40.80483 13.26581 37044 ft 414 kts 181°
2026-05-08 21:12 40.74749 13.27407 37047 ft 414 kts 182°
2026-05-08 21:12 40.69049 13.28226 37046 ft 414 kts 182°
2026-05-08 21:13 40.63313 13.29049 37052 ft 414 kts 182°
2026-05-08 21:13 40.57577 13.29870 37027 ft 414 kts 182°
2026-05-08 21:14 40.51835 13.30691 37050 ft 415 kts 182°
2026-05-08 21:14 40.46091 13.31511 37051 ft 415 kts 182°
2026-05-08 21:15 40.40377 13.32325 37048 ft 415 kts 182°
2026-05-08 21:15 40.34628 13.33143 37030 ft 415 kts 183°
2026-05-08 21:16 40.28871 13.33958 37057 ft 416 kts 183°
2026-05-08 21:16 40.23107 13.34776 37057 ft 416 kts 183°
2026-05-08 21:17 40.17349 13.35592 37049 ft 416 kts 183°
2026-05-08 21:17 40.11589 13.36407 37039 ft 416 kts 184°
2026-05-08 21:18 40.05863 13.37214 37052 ft 416 kts 184°
2026-05-08 21:18 40.00095 13.38026 37050 ft 416 kts 184°
2026-05-08 21:19 39.94326 13.38836 37048 ft 416 kts 184°
2026-05-08 21:19 39.88562 13.39645 37049 ft 416 kts 184°
2026-05-08 21:20 39.82832 13.40448 37053 ft 416 kts 184°
2026-05-08 21:20 39.77069 13.41254 37050 ft 416 kts 184°
2026-05-08 21:21 39.71303 13.42059 37050 ft 416 kts 184°
2026-05-08 21:21 39.65529 13.42864 37045 ft 417 kts 185°
2026-05-08 21:22 39.59747 13.43667 37051 ft 418 kts 185°
2026-05-08 21:22 39.53997 13.44466 37045 ft 418 kts 185°
2026-05-08 21:23 39.48212 13.45269 37050 ft 418 kts 185°
2026-05-08 21:23 39.42423 13.46070 37048 ft 419 kts 185°
2026-05-08 21:24 39.36620 13.46871 37049 ft 419 kts 185°
2026-05-08 21:24 39.30821 13.47672 37051 ft 419 kts 185°
2026-05-08 21:25 39.25051 13.48467 37048 ft 419 kts 185°
2026-05-08 21:25 39.19235 13.49267 37052 ft 420 kts 186°
2026-05-08 21:26 39.13427 13.50063 37051 ft 420 kts 186°
2026-05-08 21:26 39.07635 13.50856 37050 ft 420 kts 186°
2026-05-08 21:27 39.01813 13.51654 37050 ft 420 kts 186°
2026-05-08 21:27 38.95983 13.52451 37054 ft 421 kts 186°
2026-05-08 21:28 38.90146 13.53247 37054 ft 421 kts 186°
2026-05-08 21:28 38.84346 13.54007 37054 ft 419 kts 187°
2026-05-08 21:29 38.78546 13.54472 37035 ft 416 kts 189°
2026-05-08 21:29 38.72747 13.54813 37056 ft 416 kts 189°
2026-05-08 21:30 38.66954 13.55165 37061 ft 417 kts 189°
2026-05-08 21:30 38.61172 13.55541 37062 ft 417 kts 189°
2026-05-08 21:31 38.55364 13.55930 37030 ft 417 kts 189°
2026-05-08 21:31 38.49559 13.56320 37062 ft 417 kts 189°
2026-05-08 21:32 38.43792 13.56706 37064 ft 417 kts 189°
2026-05-08 21:32 38.37982 13.57092 37064 ft 417 kts 189°
2026-05-08 21:33 38.32178 13.57478 37045 ft 417 kts 189°
2026-05-08 21:33 38.26363 13.58024 37061 ft 425 kts 184°
2026-05-08 21:34 38.20538 13.58579 37064 ft 416 kts 190°
2026-05-08 21:34 38.14752 13.58774 37059 ft 415 kts 190°
2026-05-08 21:35 38.08961 13.59031 37049 ft 417 kts 189°
2026-05-08 21:35 38.03191 13.59380 37069 ft 417 kts 189°
2026-05-08 21:36 37.97385 13.59765 37066 ft 419 kts 188°
2026-05-08 21:36 37.91566 13.60153 37073 ft 417 kts 188°
2026-05-08 21:37 37.85764 13.60540 37048 ft 417 kts 188°
2026-05-08 21:37 37.80009 13.60917 37075 ft 416 kts 188°
2026-05-08 21:38 37.74223 13.61296 37075 ft 416 kts 188°
2026-05-08 21:38 37.68438 13.61672 37074 ft 417 kts 188°
2026-05-08 21:39 37.62633 13.62049 37079 ft 417 kts 189°
2026-05-08 21:39 37.56762 13.62420 36811 ft 434 kts 188°
2026-05-08 21:39 37.53711 13.62603 36568 ft 440 kts 188°
2026-05-08 21:40 37.50647 13.62800 36317 ft 442 kts 187°
2026-05-08 21:40 37.47570 13.63005 36060 ft 443 kts 187°
2026-05-08 21:40 37.44515 13.63210 35788 ft 443 kts 187°
2026-05-08 21:41 37.38365 13.63621 34434 ft 445 kts 187°
2026-05-08 21:41 37.35252 13.63822 33633 ft 449 kts 187°
2026-05-08 21:41 37.32118 13.64022 32824 ft 451 kts 186°
2026-05-08 21:41 37.28972 13.64225 32108 ft 450 kts 186°
2026-05-08 21:42 37.25864 13.64432 31574 ft 444 kts 186°
2026-05-08 21:42 37.22797 13.64638 31003 ft 439 kts 186°
2026-05-08 21:42 37.19795 13.64837 30424 ft 435 kts 186°
2026-05-08 21:42 37.16781 13.65034 29792 ft 431 kts 186°
2026-05-08 21:43 37.13793 13.65293 29165 ft 431 kts 180°
2026-05-08 21:43 37.10864 13.66237 28556 ft 437 kts 170°
2026-05-08 21:43 37.08002 13.67489 27930 ft 435 kts 168°
2026-05-08 21:43 37.05185 13.68870 27342 ft 432 kts 166°
2026-05-08 21:44 37.02415 13.70306 26744 ft 429 kts 165°
2026-05-08 21:44 36.99675 13.71754 26143 ft 426 kts 165°
2026-05-08 21:44 36.96982 13.73179 25562 ft 423 kts 165°
2026-05-08 21:44 36.94280 13.74599 24977 ft 419 kts 165°
2026-05-08 21:45 36.91596 13.75996 24397 ft 416 kts 166°
2026-05-08 21:45 36.88932 13.77371 23789 ft 413 kts 165°
2026-05-08 21:45 36.86282 13.78733 23139 ft 409 kts 165°
2026-05-08 21:45 36.83663 13.80075 22522 ft 405 kts 166°
2026-05-08 21:46 36.81071 13.81403 21935 ft 399 kts 166°
2026-05-08 21:46 36.78514 13.82712 21346 ft 394 kts 166°
2026-05-08 21:46 36.75986 13.84004 20794 ft 389 kts 166°
2026-05-08 21:46 36.73524 13.85263 20238 ft 384 kts 166°
2026-05-08 21:47 36.71063 13.86519 19671 ft 380 kts 166°
2026-05-08 21:47 36.68632 13.87758 19132 ft 376 kts 166°
2026-05-08 21:47 36.66220 13.88986 18566 ft 372 kts 166°
2026-05-08 21:47 36.63834 13.90200 17959 ft 369 kts 165°
2026-05-08 21:48 36.61465 13.91404 17411 ft 365 kts 165°
2026-05-08 21:48 36.59123 13.92595 16868 ft 361 kts 165°
2026-05-08 21:48 36.56800 13.93775 16330 ft 359 kts 165°
2026-05-08 21:48 36.54499 13.94942 15797 ft 356 kts 165°
2026-05-08 21:49 36.52981 13.95712 15449 ft 354 kts 164°
2026-05-08 21:49 36.50703 13.96867 14878 ft 352 kts 164°
2026-05-08 21:49 36.48437 13.98015 14314 ft 350 kts 164°
2026-05-08 21:49 36.45463 13.99520 13529 ft 347 kts 163°
2026-05-08 21:50 36.43958 14.00283 13130 ft 345 kts 163°
2026-05-08 21:50 36.41737 14.01407 12573 ft 343 kts 163°
2026-05-08 21:50 36.39553 14.02511 12014 ft 342 kts 163°
2026-05-08 21:50 36.37350 14.03623 11463 ft 341 kts 163°
2026-05-08 21:51 36.35150 14.04733 10931 ft 341 kts 163°
2026-05-08 21:51 36.32955 14.05840 10431 ft 339 kts 163°
2026-05-08 21:51 36.30818 14.06924 10310 ft 321 kts 163°
2026-05-08 21:51 36.28779 14.07961 9947 ft 315 kts 163°
2026-05-08 21:52 36.26774 14.08972 9415 ft 313 kts 163°
2026-05-08 21:52 36.24763 14.09982 8951 ft 310 kts 163°
2026-05-08 21:52 36.22772 14.10982 8500 ft 306 kts 163°
2026-05-08 21:52 36.20806 14.11969 8052 ft 303 kts 163°
2026-05-08 21:53 36.18860 14.12945 7607 ft 300 kts 163°
2026-05-08 21:53 36.16929 14.13914 7166 ft 298 kts 163°
2026-05-08 21:53 36.15009 14.14877 6726 ft 297 kts 163°
2026-05-08 21:53 36.13105 14.15831 6243 ft 294 kts 163°
2026-05-08 21:54 36.11215 14.16779 5772 ft 291 kts 162°
2026-05-08 21:54 36.09445 14.17922 5406 ft 288 kts 148°
2026-05-08 21:54 36.07944 14.19496 5226 ft 277 kts 139°
2026-05-08 21:54 36.06626 14.21175 5077 ft 266 kts 135°
2026-05-08 21:55 36.05460 14.22888 4947 ft 255 kts 132°
2026-05-08 21:55 36.04336 14.24519 4810 ft 243 kts 135°
2026-05-08 21:55 36.03191 14.26006 4609 ft 236 kts 137°
2026-05-08 21:56 36.00892 14.28872 4059 ft 232 kts 137°
2026-05-08 21:56 35.99777 14.30251 3754 ft 225 kts 137°
2026-05-08 21:56 35.98700 14.31587 3574 ft 212 kts 137°
2026-05-08 21:56 35.97699 14.32835 3437 ft 197 kts 137°
2026-05-08 21:57 35.96771 14.33997 3286 ft 182 kts 137°
2026-05-08 21:57 35.95915 14.35066 3092 ft 168 kts 137°
2026-05-08 21:57 35.95127 14.36049 2872 ft 154 kts 137°
2026-05-08 21:57 35.94401 14.36955 2653 ft 143 kts 137°
2026-05-08 21:58 35.93736 14.37785 2474 ft 134 kts 138°
2026-05-08 21:58 35.93083 14.38597 2306 ft 132 kts 137°
2026-05-08 21:58 35.92436 14.39403 2131 ft 132 kts 137°
2026-05-08 21:58 35.91791 14.40205 1955 ft 131 kts 138°
2026-05-08 21:59 35.91151 14.41002 1781 ft 131 kts 137°
2026-05-08 21:59 35.90518 14.41804 1619 ft 130 kts 137°
2026-05-08 21:59 35.89892 14.42609 1403 ft 129 kts 135°
2026-05-08 21:59 35.89263 14.43397 1243 ft 129 kts 137°
2026-05-08 22:00 35.88629 14.44186 1122 ft 129 kts 135°
2026-05-08 22:00 35.88000 14.44974 983 ft 129 kts 137°
2026-05-08 22:00 35.87357 14.45760 811 ft 133 kts 136°
2026-05-08 22:00 35.86694 14.46584 623 ft 136 kts 135°
2026-05-08 22:01 35.86044 14.47386 423 ft 133 kts 135°
2026-05-08 22:01 35.85403 14.48181 299 ft 128 kts 135°
2026-05-08 22:01 35.84832 14.48886 262 ft 93 kts 136°
2026-05-08 22:01 35.84554 14.49232 262 ft 39 kts 130°
2026-05-08 22:02 35.84451 14.49466 262 ft 11 kts 105°
2026-05-08 22:02 35.84444 14.49512 262 ft 0 kts 92°
2026-05-08 22:04 35.84446 14.49530 262 ft 6 kts 73°
2026-05-08 22:04 35.84507 14.49573 262 ft 13 kts 348°
2026-05-08 22:04 35.84586 14.49538 262 ft 12 kts 30°
2026-05-08 22:04 35.84604 14.49556 262 ft 0 kts 41°
2026-05-08 22:05 35.84638 14.49579 262 ft 8 kts 11°
2026-05-08 22:05 35.84691 14.49560 262 ft 9 kts 326°
2026-05-08 22:05 35.84742 14.49503 262 ft 11 kts 314°
2026-05-08 22:05 35.84799 14.49433 262 ft 11 kts 315°
2026-05-08 22:06 35.84853 14.49366 262 ft 0 kts 315°
2026-05-08 22:06 35.84860 14.49358 262 ft 3 kts 316°
2026-05-08 22:06 35.84879 14.49335 262 ft 5 kts 316°
2026-05-08 22:07 35.84912 14.49296 262 ft 8 kts 316°
2026-05-08 22:07 35.84955 14.49270 262 ft 6 kts 355°
2026-05-08 22:07 35.84983 14.49270 262 ft 4 kts
2026-05-08 22:07 35.84994 14.49270 262 ft 0 kts 359°